Location: Quedlinburg
(51.7921°N, 11.1414°E)
Time: 15:39:57
(UTC+01:00)

JY1SAT - Visible Passes

Search period start: 16 March 2026 00:00
Search period end: 26 March 2026 00:00
Orbit: 471 x 478 km, 97.4° (Epoch: 16 March)

Date Brightness Start Highest point End Pass type
(mag) Time Alt. Az. Time Alt. Az. Time Alt. Az.
16 Mar ? 20:46:03 29° NNE 20:46:03 29° NNE 20:48:09 10° N visible
16 Mar ? 22:20:11 12° NW 22:20:11 12° NW 22:20:43 10° NW visible
17 Mar ? 20:18:04 21° NE 20:18:04 21° NE 20:20:08 10° NNE visible
17 Mar ? 21:52:12 21° NW 21:52:12 21° NW 21:53:41 10° NNW visible
18 Mar ? 19:50:03 13° ENE 19:50:03 13° ENE 19:51:36 10° NNE visible
18 Mar ? 21:24:11 32° NNW 21:24:11 32° NNW 21:26:15 10° NNW visible
19 Mar ? 20:56:07 37° NNE 20:56:07 37° NNE 20:58:31 10° N visible
19 Mar ? 22:30:15 11° WNW 22:30:15 11° WNW 22:30:35 10° NW visible
20 Mar ? 20:28:03 26° NE 20:28:03 26° NE 20:30:31 10° N visible
20 Mar ? 22:02:10 20° NW 22:02:10 20° NW 22:03:44 10° NW visible
21 Mar ? 19:59:56 16° ENE 19:59:56 16° ENE 20:02:08 10° NNE visible
21 Mar ? 21:34:04 34° NW 21:34:04 34° NW 21:36:18 10° NNW visible
22 Mar ? 21:05:55 46° N 21:05:55 46° N 21:08:34 10° N visible
23 Mar ? 20:37:44 33° NE 20:37:44 33° NE 20:40:34 10° N visible
23 Mar ? 22:11:51 18° WNW 22:11:51 18° WNW 22:13:26 10° NW visible
24 Mar ? 20:09:32 19° ENE 20:09:40 19° ENE 20:12:14 10° NNE visible
24 Mar ? 21:43:39 33° NW 21:43:39 33° NW 21:46:02 10° NNW visible
25 Mar ? 19:41:18 10° ENE 19:42:05 11° ENE 19:43:02 10° NE visible
25 Mar ? 21:15:25 56° NNW 21:15:25 56° NNW 21:18:18 10° NNW visible
